www.pogodaiklimat.ru

Погода и климат >> Архив погоды >> Парагвай >> Консепсьон


ПОГОДА в Консепсьоне

  • Прогноз погоды в Консепсьоне
  • Монитор погоды в Консепсьоне

АРХИВ ПОГОДЫ в Консепсьоне

Время (UTC), дата Ветер
(напр.,м/с)
 
Видим.   Явления Облачность Т
(С)
Тd
(С)
f
(%)
Тe
(С)
Тes
(С)
Комфортность P
(гПа)
Po
(гПа)
Тmin
(С)
Tmax
(С)
R
(мм)
R24
(мм)
S
(см)
09 15.02 Ю 2 20 км 9/4 900 м
[Sc Ac As]
+24.6 +22.4 88 +32 +32 очень
душно
1010.4 1001.8
12 15.02 Ю 3 20 км 3/0 2000 м
[Ac trans]
+26.6 +21.0 71 +33 +38 очень
душно
1011.4 1002.8 +24.0 0.6
15 15.02 Ю 2 20 км 8/0 2000 м
[Ac As]
+28.6 +18.5 54 +33 +43 очень
душно
1012.0 1003.5
18 15.02 Ю 5 20 км 6/6 900 м
[Cu hum]
+30.2 +17.5 47 +34 +38 очень
душно
1009.8 1001.3
21 15.02 Ю 4 20 км 4/4 900 м
[Cu hum]
+29.4 +18.0 50 +34 +34 очень
душно
1008.7 1000.2
00 16.02 Ю 3 20 км ясно +26.2 +20.0 69 +32 +32 очень
душно
1009.0 1000.4 +31.0
03 16.02 Ю 2 20 км ясно +24.0 +20.7 82 +30 +30 очень
душно
1010.9 1002.2
06 16.02 Ю 2 20 км ясно +22.4 +20.2 87 +29 +29 очень
душно
1010.4 1001.7
09 16.02 Ю 4 20 км ясно +21.6 +18.9 85 +26 +26 душно 1009.6 1000.9
12 16.02 Ю 4 20 км ясно +23.4 +19.4 78 +30 +35 очень
душно
1010.9 1002.2 +20.8
15 16.02 Ю 5 20 км 5/5 900 м
[Cu hum]
+27.2 +19.4 62 +33 +39 очень
душно
1010.7 1002.1
18 16.02 ЮЗ 4 20 км 6/6 1000 м
[Cu hum]
+29.0 +16.5 47 +32 +37 душно 1008.9 1000.4
21 16.02 Ю 5 20 км 9/9 900 м
[Cu Sc]
+27.4 +19.1 61 +33 +33 очень
душно
1008.1 999.6
00 17.02 Ю 2 20 км ясно +23.4 +21.2 87 +31 +31 очень
душно
1008.9 1000.2 +30.0
03 17.02 Ю 2 20 км ясно +23.2 +21.2 89 +31 +31 очень
душно
1009.9 1001.2
06 17.02 штиль 0 20 км 9/9 800 м
[Sc]
+23.0 +21.3 90 +31 +31 очень
душно
1009.5 1000.8
09 17.02 штиль 0 20 км ясно +22.2 +20.4 90 +29 +29 очень
душно
1008.3 999.6
12 17.02 Ю 2 20 км 10/10 300 м
[St]
+23.0 +21.3 90 +31 +31 очень
душно
1009.8 1001.1 +21.8
15 17.02 ЮВ 3 20 км 6/6 800 м
[Sc]
+26.6 +19.6 65 +32 +40 очень
душно
1010.5 1001.9
18 17.02 Ю 4 20 км 4/4 1000 м
[Cu med, cong]
+30.6 +20.5 55 +38 +44 очень
душно
1008.2 999.8
21 17.02 Ю 4 20 км 3/3 1000 м
[Cu hum]
+30.6 +18.7 49 +36 +36 очень
душно
1006.5 998.1
00 18.02 ЮВ 3 20 км ясно +25.8 +20.2 71 +32 +32 очень
душно
1007.8 999.2 +31.2
03 18.02 Ю 2 20 км ясно +23.2 +21.3 89 +31 +31 очень
душно
1009.1 1000.4
09 18.02 штиль 0 20 км ясно +20.4 +19.8 96 +24 +24 комфорт 1007.8 999.1
12 18.02 В 2 20 км ясно +24.4 +20.8 80 +30 +38 очень
душно
1009.4 1000.7 +20.4
15 18.02 З 2 20 км 1/1 800 м
[Cu hum]
+30.4 +20.7 56 +37 +56 опасность
солнечного
удара
1009.5 1001.0
18 18.02 Ю 2 20 км 6/6 1000 м
[Cu med, cong]
+32.6 +19.5 46 +38 +45 очень
душно
1006.7 998.3
21 18.02 Ю 2 20 км 3/3 1000 м
[Cu hum]
+33.0 +21.6 51 +41 +42 опасность
перегрева
1005.1 996.7
00 19.02 ЮВ 3 20 км 4/0 2000 м
[Ac As]
+28.0 +22.1 70 +36 +36 очень
душно
1006.3 997.8 +33.4
03 19.02 В 3 20 км ясно +25.8 +21.6 78 +33 +33 очень
душно
1008.4 999.8
06 19.02 В 2 20 км 8/0 2000 м
[Ac As]
+25.6 +21.7 79 +33 +33 очень
душно
1007.4 998.8
09 19.02 В 3 20 км зарница 1/1 1200 м
[Cb calv]
+24.4 +20.7 80 +30 +30 очень
душно
1007.3 998.7
12 19.02 СВ 4 20 км 1/0 2000 м
[Ac trans]
+27.6 +22.2 72 +36 +40 очень
душно
1008.9 1000.3 +23.6
15 19.02 З 3 20 км 4/1 1000 м
[Cu hum Ac cast]
+30.8 +22.5 61 +40 +53 опасность
солнечного
удара
1009.0 1000.5
18 19.02 ЮЗ 2 20 км 5/5 1000 м
[Cu Sc]
+35.4 +19.9 40 +41 +49 опасность
перегрева
1006.5 998.2
21 19.02 Ю 2 20 км 1/1 1200 м
[Cu med, cong]
+34.6 +20.3 43 +41 +42 опасность
перегрева
1005.0 996.7
00 20.02 В 1 20 км зарница 1/1 1200 м
[Cb calv]
+29.2 +22.9 69 +39 +39 очень
душно
1006.4 997.9 +35.6
03 20.02 штиль 0 20 км ясно +25.4 +21.7 80 +33 +33 очень
душно
1008.8 1000.2
06 20.02 штиль 0 20 км ясно +24.8 +20.5 77 +31 +31 очень
душно
1008.8 1000.2
09 20.02 штиль 0 20 км ясно +22.8 +21.4 92 +30 +30 очень
душно
1008.6 999.9
12 20.02 В 3 20 км ясно +26.2 +21.5 75 +33 +40 очень
душно
1010.0 1001.4 +22.5
15 20.02 З 3 20 км 4/4 900 м
[Cu hum]
+31.6 +24.9 68 +45 +56 опасность
перегрева
1010.0 1001.5
18 20.02 ЮВ 3 20 км 5/5 1000 м
[Cu Sc]
+35.0 +23.4 51 +46 +52 опасность
перегрева
1007.5 999.2
21 20.02 Ю 2 20 км 1/1 1200 м
[Cu med, cong]
+34.8 +20.4 43 +41 +43 опасность
перегрева
1005.7 997.4
00 21.02 В 3 20 км ясно +29.4 +22.9 68 +39 +39 очень
душно
1006.5 998.0 +35.8
03 21.02 штиль 0 20 км ясно +25.4 +21.6 80 +33 +33 очень
душно
1009.1 1000.5
06 21.02 ЮВ 1 20 км ясно +23.4 +21.5 89 +32 +32 очень
душно
1008.0 999.3
09 21.02 штиль 0 20 км ясно +23.2 +21.4 90 +31 +31 очень
душно
1008.4 999.7
12 21.02 В 2 20 км ясно +28.0 +23.5 77 +38 +45 очень
душно
1010.8 1002.0 +23.0
15 21.02 З 2 20 км 3/3 900 м
[Cu hum]
+33.4 +22.8 54 +43 +57 опасность
перегрева
1011.0 1002.6
18 21.02 З 2 20 км 5/5 1000 м
[Cu Sc]
+35.6 +21.6 44 +43 +51 опасность
перегрева
1009.2 1000.9
21 21.02 В 2 20 км 1/1 1200 м
[Cu med, cong]
+36.0 +21.2 42 +43 +44 опасность
перегрева
1007.3 999.0
00 22.02 В 2 20 км ясно +29.4 +23.1 69 +39 +39 очень
душно
1008.2 999.7 +37.0
03 22.02 ЮВ 2 20 км ясно +26.0 +23.0 84 +35 +35 очень
душно
1009.8 1001.2
06 22.02 штиль 0 20 км ясно +25.0 +22.0 83 +32 +32 очень
душно
1009.2 1000.5

 

Местоположение метеостанции Консепсьон (Парагвай): широта -23.41 долгота -57.30 высота над уровнем моря 74 м.

В архиве по умолчанию представлена погода в Консепсьоне за последнюю неделю. Архивные данные за месяц целиком и за предыдущие месяцы, начиная с января 2011 года, Вы можете получить, выбрав интересующий диапазон дат из раскрывающегося списка и нажав кнопку "Ввод!".


*Определитесь, кто Вы:
робот инопланетянин человек

Внимание! Время в таблицах - всемирное. Для получения местного времени необходимо прибавить поправку, которая равна -4 ч.

Смотрите также архив погоды в соседних городах и на ближайших метеорологических станциях:

Погода в Сан-Педро (Парагвай) (76 км)
Погода в Пуэрто-Касадо (Парагвай) (138 км)
Погода в Посо Колорадо (Парагвай) (163 км)
Погода в Сан Эстанислао (Парагвай) (164 км)
Погода в Педро-Хуан-Кабальеро (Парагвай) (185 км)
Погода в Понта-Пора (Мату-Гросу-ду-Сул, Бразилия) (191 км)
Погода в Порто Муртиньо (Мату-Гросу-ду-Сул, Бразилия) (192 км)
Погода в Асунсьоне (Парагвай) (206 км)
Погода в Понта-Поране (Мату-Гросу-ду-Сул, Бразилия) (206 км)
Погода в Амамбаи (Мату-Гросу-ду-Сул, Бразилия) (206 км)

Пояснения к столбцам:

Ветер - указаны скорость ветра в м/с - средняя за 10 мин, порывы в срок и между сроками (в фигурных скобках) и направление, откуда дует ветер: С - северный, СВ - северо-восточный, В - восточный, ЮВ - юго-восточный, Ю - южный, ЮЗ - юго-западный, З - западный, СЗ - северо-западный.
Видимость - горизонтальная дальность видимости в метрах или километрах. При видимости от 1 до 10 км при отсутствии осадков обычно наблюдается дымка, при ухудшении видимости до 1 км и менее - туман. В сухую погоду видимость может ухудшаться дымом, пылью или мглою.
Явления - указаны атмосферные явления, наблюдавшиеся в срок или в последний час перед сроком; фигурными скобками обозначены явления, наблюдавшиеся между сроками (за 1-3 часа до срока); квадратными скобками обозначены град или гололедные отложения с указанием их диаметра в мм.
Облачность - указаны через наклонную черту общая и нижняя облачность в баллах и высота нижней границы облаков в метрах; квадратными скобками обозначены формы облаков: Ci - перистые, Cs - перисто-слоистые, Cc - перисто-кучевые, Ac - высококучевые, As - высокослоистые, Sc - слоисто-кучевые, Ns - слоисто-дождевые, Cu - кучевые, Cb - кучево-дождевые. Подробнее классификацию облаков см. в Атласе облаков (PDF).
T - Температура воздуха - температура, измеренная на высоте 2 м над землей.
Td - Температура точки росы - температура, при понижении до которой содержащийся в воздухе водяной пар достигнет насыщения.
f - Относительная влажность воздуха - влажноcть воздуха, измеренная на высоте 2 м над землей.
Te - Эффективная температура - температура, которую ощущает одетый по сезону человек в тени. Характеристика душности погоды. При расчете учитывается влияние влажности воздуха и скорости ветра на теплоощущения человека.
Tes - Эффективная температура на солнце - температура, которую ощущает человек, с поправкой на солнечный нагрев. Характеристика знойности погоды. Зависит от высоты солнца над горизонтом, облачности и скорости ветра. Ночью, в пасмурную погоду, а также при ветре 12 м/с и более поправка равна нулю.
P - Атмосферное давление - приведенное к уровню моря атмосферное давление.
Po - Атмосферное давление - измеренное на уровне метеостанции атмосферное давление.
Tmin - Минимальная температура - минимум температуры воздуха на высоте 2 м над землей.
Tmax - Максимальная температура - максимум температуры воздуха на высоте 2 м над землей.
R - Количество осадков - Количество выпавших осадков за период времени, мм. При наведении курсора мыши на число - период времени, за который выпало указанное количество осадков.
R24 - Количество осадков - Количество выпавших осадков за 24 часа, мм.
S - Снежный покров - Высота снежного покрова, см. При наведении курсора мыши на число - состояние снежного покрова и степень покрытия местности в баллах.